This is the latest recevied weather packets stored in our database for station/object KD0MAC. If no packets are shown the sender has not sent any weather packets the latest 10 day(s).
| Time | Temp. | Humidity | Pressure | Rain* | Wind** | Luminosity | Snow |
|---|---|---|---|---|---|---|---|
| 1788125830 | 34.44° C | 40% | 1011.2 hPa | 0 mm | - | 394 W/m² | - |
| 1788125529 | 34.44° C | 44% | 1011.5 hPa | 0 mm | - | 408 W/m² | - |
| 1788125229 | 34.44° C | 43% | 1011.5 hPa | 0 mm | - | 418 W/m² | - |
| 1788124929 | 34.44° C | 41% | 1011.5 hPa | 0 mm | - | 427 W/m² | - |
| 1788124630 | 34.44° C | 43% | 1011.5 hPa | 0 mm | - | 436 W/m² | - |
| 1788124331 | 34.44° C | 44% | 1011.5 hPa | 0 mm | - | 446 W/m² | - |
| 1788124029 | 35° C | 43% | 1011.5 hPa | 0 mm | - | 454 W/m² | - |
| 1788123731 | 35° C | 40% | 1011.5 hPa | 0 mm | - | 462 W/m² | - |
| 1788123429 | 34.44° C | 45% | 1011.5 hPa | 0 mm | - | 473 W/m² | - |
| 1788123129 | 34.44° C | 46% | 1011.5 hPa | 0 mm | - | 482 W/m² | - |
| 1788122830 | 34.44° C | 43% | 1011.5 hPa | 0 mm | - | 488 W/m² | - |
| 1788122529 | 34.44° C | 42% | 1011.5 hPa | 0 mm | - | 495 W/m² | - |
| 1788122229 | 34.44° C | 42% | 1011.5 hPa | 0 mm | - | 500 W/m² | - |
| 1788121930 | 34.44° C | 46% | 1011.5 hPa | 0 mm | - | 513 W/m² | - |
| 1788121630 | 34.44° C | 45% | 1011.5 hPa | 0 mm | - | 520 W/m² | - |
| 1788121329 | 34.44° C | 45% | 1011.5 hPa | 0 mm | - | 528 W/m² | - |
| 1788121030 | 35° C | 44% | 1011.5 hPa | 0 mm | - | 536 W/m² | - |
| 1788120729 | 34.44° C | 45% | 1011.9 hPa | 0 mm | - | 507 W/m² | - |
| 1788120429 | 34.44° C | 44% | 1011.9 hPa | 0 mm | - | 514 W/m² | - |
| 1788120131 | 33.89° C | 46% | 1011.9 hPa | 0 mm | - | 516 W/m² | - |
| 1788119829 | 33.89° C | 49% | 1011.9 hPa | 0 mm | - | 519 W/m² | - |
| 1788119529 | 33.89° C | 44% | 1011.9 hPa | 0 mm | - | 524 W/m² | - |
| 1788119229 | 33.89° C | 47% | 1011.9 hPa | 0 mm | - | 532 W/m² | - |
| 1788118932 | 33.89° C | 48% | 1011.9 hPa | 0 mm | - | 539 W/m² | - |
| 1788118630 | 33.33° C | 47% | 1011.9 hPa | 0 mm | - | 541 W/m² | - |
* Rain latest hour (hover to see other rain measurements)
** Current wind speed in m/s (hover to see current wind gust speed)